Monterey, CA

1:49 AM PST on January 17, 2017 (GMT -0800)
Monterey Peninsula

Weather History for KMRY - March, 2013

Change the Weather History Date:

Friday, March 29, 2013

  Actual Average Record
Temperature  
Mean Temperature 54 °F 53 °F  
Max Temperature 65 °F 61 °F 73 °F (2003)
Min Temperature 42 °F 46 °F 37 °F (1998)
Degree Days  
Heating Degree Days 11    
Month to date heating degree days 371  
Since 1 July heating degree days 2637  
Cooling Degree Days 0    
Month to date cooling degree days 0  
Year to date cooling degree days 0  
Growing Degree Days 4 (Base 50)    
Moisture  
Dew Point 48 °F    
Average Humidity 80    
Maximum Humidity 100    
Minimum Humidity 60    
Precipitation  
Precipitation 0.00 in - 0.45 in (2014)
Month to date precipitation 0.80  
Year to date precipitation 2.38  
Since 1 July precipitation 10.62  
Sea Level Pressure  
Sea Level Pressure 30.09 in    
Wind  
Wind Speed 4 mph (WSW)    
Max Wind Speed 20 mph    
Max Gust Speed 24 mph    
Visibility 7 miles    
Events Fog    
T = Trace of Precipitation, MM = Missing Value Source: NWS Daily Summary

Daily Weather History Graph

Daily Weather History Graph

Search for Another Location

Airport or City:

Trip Planner

Search our weather history database for the weather conditions in past years. The results will help you decide how hot, cold, wet, or windy it might be!

Date:

Astronomy

Mar. 29, 2013 Rise Set
Actual Time 6:57 AM PDT 7:27 PM PDT
Civil Twilight 6:31 AM PDT 7:53 PM PDT
Nautical Twilight 6:00 AM PDT 8:23 PM PDT
Astronomical Twilight 5:29 AM PDT 8:55 PM PDT
Moon 10:27 PM PDT (3/29) 8:14 AM PDT (3/29)
Length of Visible Light 13h 21m
Length of Day
12h 30m
Waning Gibbous, 93% of the Moon is Illuminated
Mar 29
Waning Gibbous
Apr 2
Last Quarter
Apr 10
New
Apr 18
First Quarter
Apr 25
Full

Hourly Weather History & Observations

Time (PDT) Temp. Windchill Dew Point Humidity Pressure Visibility Wind Dir Wind Speed Gust Speed Precip Events Conditions
12:54 AM 48.9 °F - 46.0 °F 90% 30.13 in 10.0 mi Calm Calm - N/A   Clear
1:09 AM 50.0 °F - 46.4 °F 87% 30.09 in 10.0 mi Calm Calm - N/A   Partly Cloudy
1:22 AM 48.2 °F - 46.4 °F 93% 30.09 in 1.5 mi Calm Calm - N/A   Scattered Clouds
1:24 AM 48.2 °F - 46.4 °F 93% 30.09 in 0.8 mi Calm Calm - N/A   Mist
1:35 AM 48.2 °F - 48.2 °F 100% 30.09 in 0.2 mi Calm Calm - N/A Fog Fog
1:50 AM 48.2 °F - 48.2 °F 100% 30.09 in 0.8 mi Calm Calm - N/A   Mist
1:54 AM 48.9 °F - 48.0 °F 97% 30.13 in 2.5 mi Calm Calm - N/A   Overcast
2:01 AM 48.2 °F - 48.2 °F 100% 30.09 in 1.2 mi Calm Calm - N/A   Overcast
2:22 AM 48.2 °F - 48.2 °F 100% 30.09 in 0.5 mi Calm Calm - N/A Fog Fog
2:33 AM 48.2 °F - 46.4 °F 93% 30.08 in 1.5 mi Calm Calm - N/A   Overcast
2:44 AM 46.4 °F - 44.6 °F 93% 30.08 in 3.0 mi Calm Calm - N/A   Mostly Cloudy
2:54 AM 46.9 °F - 46.0 °F 97% 30.12 in 1.0 mi Calm Calm - N/A   Mist
3:01 AM 48.2 °F - 46.4 °F 93% 30.08 in 0.5 mi Calm Calm - N/A Fog Fog
3:07 AM 46.4 °F - 46.4 °F 100% 30.08 in 1.0 mi Calm Calm - N/A   Mostly Cloudy
3:13 AM 46.4 °F - 46.4 °F 100% 30.08 in 3.0 mi Calm Calm - N/A   Overcast
3:32 AM 46.4 °F - 46.4 °F 100% 30.07 in 10.0 mi Calm Calm - N/A   Scattered Clouds
3:54 AM 45.0 °F - 44.1 °F 97% 30.11 in 10.0 mi Calm Calm - N/A   Clear
4:54 AM 46.0 °F - 45.0 °F 96% 30.11 in 8.0 mi Calm Calm - N/A   Partly Cloudy
5:02 AM 46.4 °F 45.2 °F 44.6 °F 93% 30.07 in 2.5 mi South 3.5 mph - N/A   Mostly Cloudy
5:08 AM 46.4 °F - 44.6 °F 93% 30.07 in 1.0 mi Calm Calm - N/A   Mist
5:16 AM 46.4 °F - 46.4 °F 100% 30.07 in 0.5 mi Calm Calm - N/A Fog Fog
5:26 AM 46.4 °F - 46.4 °F 100% 30.07 in 0.2 mi Calm Calm - N/A Fog Fog
5:38 AM 46.4 °F - 46.4 °F 100% 30.07 in 0.5 mi Calm Calm - N/A Fog Fog
5:51 AM 46.4 °F - 44.6 °F 93% 30.07 in 2.5 mi Calm Calm - N/A   Mostly Cloudy
5:54 AM 45.0 °F - 45.0 °F 100% 30.11 in 9.0 mi Calm Calm - N/A   Scattered Clouds
6:54 AM 45.0 °F 43.5 °F 43.0 °F 93% 30.10 in 10.0 mi ESE 3.5 mph - N/A   Scattered Clouds
7:54 AM 48.0 °F - 45.0 °F 89% 30.11 in 10.0 mi East 4.6 mph - N/A   Clear
8:54 AM 54.0 °F - 48.0 °F 80% 30.10 in 10.0 mi Calm Calm - N/A   Clear
9:54 AM 60.1 °F - 51.1 °F 72% 30.10 in 10.0 mi Calm Calm - N/A   Clear
10:54 AM 62.1 °F - 50.0 °F 65% 30.11 in 10.0 mi WNW 5.8 mph - N/A   Clear
11:54 AM 63.0 °F - 48.0 °F 58% 30.12 in 10.0 mi West 5.8 mph - N/A   Partly Cloudy
12:54 PM 62.1 °F - 48.0 °F 60% 30.12 in 10.0 mi SW 10.4 mph - N/A   Partly Cloudy
1:54 PM 59.0 °F - 50.0 °F 72% 30.11 in 10.0 mi SSW 15.0 mph 23.0 mph N/A   Clear
2:54 PM 63.0 °F - 50.0 °F 63% 30.09 in 10.0 mi SSW 10.4 mph - N/A   Clear
3:54 PM 62.1 °F - 51.1 °F 67% 30.09 in 10.0 mi Variable 6.9 mph - N/A   Clear
4:54 PM 57.0 °F - 50.0 °F 77% 30.10 in 10.0 mi West 9.2 mph - N/A   Scattered Clouds
5:47 PM 55.4 °F - 50.0 °F 82% 30.06 in 10.0 mi SW 6.9 mph - N/A   Mostly Cloudy
5:54 PM 55.0 °F - 50.0 °F 83% 30.10 in 10.0 mi SW 5.8 mph - N/A   Mostly Cloudy
6:11 PM 55.4 °F - 50.0 °F 82% 30.06 in 10.0 mi SW 5.8 mph - N/A   Mostly Cloudy
6:54 PM 54.0 °F - 48.9 °F 83% 30.11 in 10.0 mi Calm Calm - N/A   Overcast
7:54 PM 53.1 °F - 50.0 °F 89% 30.10 in 10.0 mi NNE 4.6 mph - N/A   Overcast
8:18 PM 53.6 °F - 50.0 °F 88% 30.06 in 10.0 mi North 3.5 mph - N/A   Overcast
8:54 PM 53.1 °F - 50.0 °F 89% 30.11 in 10.0 mi Calm Calm - N/A   Overcast
9:15 PM 53.6 °F - 50.0 °F 88% 30.07 in 10.0 mi Calm Calm - N/A   Overcast
9:54 PM 53.1 °F - 50.0 °F 89% 30.12 in 10.0 mi Calm Calm - N/A   Mostly Cloudy
10:09 PM 53.6 °F - 50.0 °F 88% 30.09 in 10.0 mi North 3.5 mph - N/A   Scattered Clouds
10:43 PM 53.6 °F - 50.0 °F 88% 30.09 in 10.0 mi Calm Calm - N/A   Mostly Cloudy
10:54 PM 53.1 °F - 50.0 °F 89% 30.12 in 10.0 mi Calm Calm - N/A   Overcast
11:50 PM 53.6 °F - 50.0 °F 88% 30.10 in 10.0 mi West 3.5 mph - N/A   Mostly Cloudy
11:54 PM 53.1 °F - 50.0 °F 89% 30.14 in 10.0 mi WNW 4.6 mph - N/A   Mostly Cloudy